Regional Weather Roundup
Issued by NWS

Home | Current Version | Previous Version | Text Only | Print | Product List | Glossary On
Versions: 1 2 3 4 5 6 7 8 9 10 11 12 13 14 15 16 17 18 19 20 21 22 23 24 25 26 27 28 29 30 31 32 33 34 35 36 37 38 39 40 41 42 43 44 45 46 47 48 49 50
000
ASUS46 KLOX 301513
RWRCA

SOUTHERN CALIFORNIA WEATHER ROUNDUP
NATIONAL WEATHER SERVICE OXNARD CALIFORNIA
800 AM PDT SAT APR 30 2016

NOTE: "FAIR" INDICATES FEW OR NO CLOUDS BELOW 12,000 FEET WITH NO
SIGNIFICANT WEATHER AND/OR OBSTRUCTIONS TO VISIBILITY.

  -  STATIONS PRECEEDED BY AN ASTERISK (*) ARE NOT NWS OR FAA
     STATIONS AND ARE NOT SUBJECT TO NWS AND FAA QUALITY CONTROL.

CAZ041-042-087-301600-
LA AND ORANGE COUNTY COASTAL AREAS


CITY           SKY/WX    TMP DP  RH WIND       PRES   REMARKS
L.A. DOWNTOWN  MOSUNNY   59  50  72 CALM      29.84R
L.A. AIRPORT   PTSUNNY   58  51  78 VRB3      29.84S
LONG BEACH     CLOUDY    56  52  86 NW5       29.85R

CITY           SKY/WX    TMP DP  RH WIND       PRES   REMARKS
AVALON           N/A     54 N/A N/A E3          N/A
FULLERTON      CLOUDY    57  53  86 W3        29.84S
*GETTY CENTER    N/A    N/A N/A N/A S1          N/A
HAWTHORNE      CLOUDY    57  50  77 CALM      29.85R
*LEO CARRILLO    N/A     58  50  74 SW5         N/A
*LOS ALAMITOS  CLOUDY    57  53  87 W1        29.84S
*REDONDO BEACH   N/A     57  50  77 CALM      29.84R
SANTA ANA      PTSUNNY   57  50  77 SE6       29.84S
STA MONICA APT MOSUNNY   58  49  72 VRB3      29.84S
*STA MON PIER    N/A     57  51  80 SW2       29.78
TORRANCE       CLOUDY    59  52  77 W6        29.86
*UCLA            N/A     57  46  67 NE3       29.81S

$$

CAZ547-548-048-301600-
LA COUNTY VALLEYS AND INLAND EMPIRE


CITY           SKY/WX    TMP DP  RH WIND       PRES   REMARKS
BURBANK        MOSUNNY   57  49  74 CALM      29.83R
VAN NUYS       PTSUNNY   56  50  80 CALM      29.83S

CITY           SKY/WX    TMP DP  RH WIND       PRES   REMARKS
CORONA AIRPORT CLOUDY    57  50  77 NW5       29.84R
*CHATSWORTH      N/A     57  50  77 SE1       29.85R
CHINO          PTSUNNY   57  49  74 SW8       29.84R
*CLAREMONT       N/A     50  49  97 S7          N/A
MARCH AFB      DRIZZLE   53  48  85 S13       29.83R
*NORTHRIDGE      N/A     55  48  76 SE1         N/A
ONTARIO        PTSUNNY   53  50  89 W8        29.83R
*PASADENA        N/A     57  54  88 CALM        N/A
POMONA         CLOUDY    50  50 100 SW7       29.87R FOG
RIVERSIDE      PTSUNNY   54  51  90 W5        29.83S
SAN BERNARDINO FOG       54  50  87 E7        29.85R VSB 1
*SAN GABRIEL     N/A     57  52  85 SE5       29.91S
*SAN RAFAEL HI   N/A     51  51 100 CALM        N/A
*SAUGUS          N/A     50  47  91 SE7         N/A
*WHITEMAN AP   PTSUNNY   55  48  76 CALM      29.87
*WHITTIER HILL   N/A     52  52  99 CALM        N/A
*WOODLAND HILL   N/A     55  48  76 E1          N/A

$$

CAZ054-055-301600-
LA AND SAN BERNARDINO COUNTY MOUNTAINS


CITY           SKY/WX    TMP DP  RH WIND       PRES   REMARKS
*ACTON           N/A     51  43  75 E2          N/A
*BIG BEAR AIRP FLURRIES  36  28  75 W7        29.84R WCI  30
*BIG PINES       N/A     35  29  79 CALM        N/A
SANDBERG       LGT RAIN  42  36  79 N25G31    29.87R WCI  32
*WARM SPRINGS    N/A     46  33  59 CALM        N/A

$$

CAZ028-029-059-060-099-301600-
ANTELOPE VALLEY AND SURROUNDING AREAS


CITY           SKY/WX    TMP DP  RH WIND       PRES   REMARKS
LANCASTER      PTSUNNY   56  35  45 W13       29.84R
PALMDALE       PTSUNNY   54  35  48 W14       29.84R
*POPPY PARK      N/A     50  35  56 W23         N/A

CITY           SKY/WX    TMP DP  RH WIND       PRES   REMARKS
29 PALMS       MOSUNNY   60  30  32 NW29G39   29.82R
BARSTOW/DAGGET LGT RAIN  52  44  74 SW12      29.81R
BISHOP         CLOUDY    49  31  49 N21G29    29.96R
CHINA LAKE     LGT RAIN  57  36  45 N22       29.82R
EDWARDS AFB    PTSUNNY   56  38  49 W8        29.81R
MOJAVE         MOSUNNY   55  39  54 W16       29.83R
NEEDLES        MOSUNNY   65  47  52 N16       29.70R
VICTORVILLE    PTSUNNY   52  32  46 W18G28    29.81S

$$

CAZ039-040-301600-
VENTURA AND SANTA BARBARA COUNTY COAST


CITY           SKY/WX    TMP DP  RH WIND       PRES   REMARKS
CAMARILLO      MOSUNNY   55  48  77 CALM      29.84R
NWS OXNARD       N/A     57  51  82 CALM      29.83F
OXNARD AIRPORT CLOUDY    56  50  80 CALM      29.85R
*POINT MUGU    MOSUNNY   57  50  77 CALM      29.85F
SBA APT/GOLETA MOSUNNY   57  46  66 E3        29.86S
*SANTA BARBARA   N/A     56  47  71 CALM      29.94R
*VENTURA         N/A     57  51  80 CALM      29.83F

$$

CAZ044-045-301600-
VENTURA COUNTY VALLEYS


CITY           SKY/WX    TMP DP  RH WIND       PRES   REMARKS
*SIMI VALLEY     N/A     57  50  78 CALM      29.81R
*WESTLAKE VILL   N/A     55  49  79 CALM      29.82F
*OJAI            N/A     53  51  92 NW2       29.80F
*FILLMORE        N/A     54  51  89 CALM      29.74S

$$

CAZ053-301600-
VENTURA COUNTY MOUNTAINS


CITY           SKY/WX    TMP DP  RH WIND       PRES   REMARKS
*LOCKWOOD VLY    N/A     41  34  75 SE7         N/A
*ROSE VALLEY     N/A     50  39  66 MISG        N/A

$$

CAZ034-035-036-301600-
CENTRAL COAST AND SANTA YNEZ VALLEY


CITY           SKY/WX    TMP DP  RH WIND       PRES   REMARKS
SAN LUIS OBISP SUNNY     52  47  83 CALM      29.89S
SANTA MARIA    SUNNY     53  48  83 W5        29.90R

CITY           SKY/WX    TMP DP  RH WIND       PRES   REMARKS
*CAL POLY SLO    N/A     52  48  87 E1          N/A
*LOMPOC        SUNNY     52  47  83 W5        29.90R
*PISMO BEACH     N/A     55  50  84 CALM      29.91S
*SANTA YNEZ    FAIR      50  43  76 CALM      29.89R

$$

CAZ037-038-051-301600-
SAN LUIS OBISPO COUNTY INTERIOR AND CUYAMA VALLEY


CITY           SKY/WX    TMP DP  RH WIND       PRES   REMARKS
*CUYAMA          N/A     46  41  82 NE3       29.86R
PASO ROBLES    FAIR      51  45  79 NW9       29.89S

$$

CAZ032-033-061-301600-
SOUTHERN DESERTS


CITY           SKY/WX    TMP DP  RH WIND       PRES   REMARKS
BLYTHE         MOSUNNY   64  45  49 S7        29.69R
IMPERIAL       SUNNY     66  43  43 W16G26    29.71R
PALM SPRINGS   MOSUNNY   65  45  48 NW14G28   29.71R
THERMAL        SUNNY     68  45  43 NW17      29.69R

$$

ELSEWHERE ACROSS THE WESTERN UNITED STATES AND MEXICO


CITY           SKY/WX    TMP DP  RH WIND       PRES   REMARKS
DENVER, CO     LGT SNOW  32  28  85 N16       29.92R FOG     WCI  21
GRAND CANYON,  CLOUDY    40  36  86 SE7       29.88R
HONOLULU, HI   PTCLDY    75  66  73 NE7       30.05R
KAHULUI, MAUI  PTCLDY    70  66  88 E8        30.04F
LAKE TAHOE, CA CLOUDY    34  30  85 N3        30.03R
LAS VEGAS, NV  RAIN      49  49 100 NW13G22   29.73S FOG
MAMMOTH LAKES, CLOUDY    33  28  81 NW8       30.03R WCI  26
MEXICO CITY, M CLOUDY    68  25  19 S3        30.21R
PHOENIX, AZ    PTSUNNY   68  39  34 SE13      29.74S
PORTLAND, OR   CLOUDY    48  42  80 W5        30.36R
RENO, NV       PTSUNNY   45  32  60 N9        30.08R
SALT LAKE CITY MOSUNNY   50  39  66 W5        29.93R
SAN DIEGO, CA  CLOUDY    59  49  69 S13       29.87S
SAN FRANCISCO, MOSUNNY   58  38  47 W6        29.94S
SAN JOSE, CA   MOSUNNY   59  43  55 W14       29.92F
SEATTLE, WA    PTSUNNY   49  45  86 CALM      30.37R
TIJUANA, MEX   CLOUDY    55  48  76 S8        29.88S

$$

STATION/POSITION TIME  TEMP    WIND        PRES    VSBY  WAVE
                       AIR SEA DIR/SP/G                  HT/PER
                 (UTC) (F)     (DEG/KT/KT) (MB)    (MI)  (FT/S)
POINT ARGUELLO B NOT AVBL
WEST SANTA BARBA 1450   51 51  320/ 17/ 21 1011.0R        10/11
POINT CONCEPTION NOT AVBL
EAST SANTA BARBA 1400   55 56   30/  2/  6 1011.1R
SANTA MONICA BAY 1450   55 58  330/ 10/ 12 1011.1R         5/ 7



USA.gov is the U.S. government's official web portal to all federal, state and local government web resources and services.